"Pseudo-MPEC" for CEJKY22

Created 2026 Apr 17 11:35:12 UT using Find_Orb

Click here for an explanation of pseudo-MPECs

 
 Astrometry: 
     CEJKY22*1C2026 04 17.13974408 55 06.442+33 47 46.46   ~4H45 21.02GVNEOCPG96
     CEJKY22 1C2026 04 17.14493808 55 10.920+33 47 49.13   ~4H45       VNEOCPG96
     CEJKY22 1C2026 04 17.15014308 55 15.460+33 47 52.33   ~4H45 20.86GVNEOCPG96
     CEJKY22 1C2026 04 17.15534408 55 19.945+33 47 54.46   ~4H45 20.66GVNEOCPG96
     CEJKY22 1C2026 04 17.24008808 56 33.774+33 48 35.60   ~4H6K 20.67GVNEOCPI52
     CEJKY22 1C2026 04 17.24164508 56 35.164+33 48 37.12   ~4H6K 20.84GVNEOCPI52
     CEJKY22 1C2026 04 17.24320708 56 36.514+33 48 37.44   ~4H6K 20.61GVNEOCPI52
     CEJKY22 1C2026 04 17.24477808 56 37.885+33 48 37.91   ~4H6K 20.88GVNEOCPI52

Station data:
(G96) Mt. Lemmon Survey  (N32.442729 W110.788720)  US/Arizona.  Observer E.
   J. Christensen. Measurers T. Beuden, V. F. Carvajal, D. Fay, J. B.
   Fazekas, D. C. Fuls, A. R. Gibbs, A. D. Grauer, H. Gröller, J. K. Hogan,
   R. A. Kowalski, S. M. Larson, G. J. Leonard, D. Rankin, R. L. Seaman, F.
   C. Shelly, K. W. Wierzchoś. 1.5-m reflector + 10K CCD.
(I52) Steward Observatory, Mt. Lemmon Station  (N32.442570 W110.788920)
   US/Arizona. Measurers T. Beuden, V. F. Carvajal, D. Fay, J. B. Fazekas, D.
   C. Fuls, A. R. Gibbs, A. D. Grauer, H. Gröller, J. K. Hogan, R. A.
   Kowalski, S. M. Larson, G. J. Leonard, D. Rankin, R. L. Seaman, F. C.
   Shelly, K. W. Wierzchoś. 1.0-m prime focus + CCD.

Orbital elements:  CEJKY22
   Perihelion 2026 Feb 9.725921 +/- 18.6 TT = 17:25:19.5 (JD 2461081.225921)
Epoch 2026 Apr 17.0 TT = JDT 2461147.5   Earth MOID: 0.0163   Ve: 0.0951
M  62.334079432 +/- 40              (J2000 ecliptic)             AutoNEOCP
n   0.940549916 +/- 0.523           Peri.  245.436412 +/- 45
a   1.031687455 +/- 0.383           Node   190.304760 +/- 6
e   0.51140258 +/- 0.19             Incl.   20.115950 +/- 8
P   1.048/382.748d         H 22.24  G  0.15   U 12.3  SR
q 0.504079822 +/- 0.231    Q 1.559295088 +/- 2.17
From 8 observations 2026 Apr. 17 (2.5 hr); mean residual 0".30
Residuals in arcseconds: 
260417 G96  .59+  .16+    260417 G96  .62-  .41-    260417 I52  .05+  .09+    
260417 G96  .05-  .06-    260417 I52  .23-  .39-    260417 I52  .09+  .12-    
260417 G96  .02-  .28+    260417 I52  .19+  .45+    

Ephemerides (geocentric):
Date (UTC) HH   RA             Dec           delta  r     elong  mag " sig PA
---- --------  ------------   ------------  ------ ------ -----  --- --------
2026 04 17 12  09 00 23.833   +33 50 47.26  .18027 1.0509 100.2 21.1 94.5 105
2026 04 17 13  09 00 59.863   +33 51 04.57  .18061 1.0512 100.3 21.1  106 104
2026 04 17 14  09 01 35.766   +33 51 21.14  .18095 1.0516 100.4 21.1  117 104
2026 04 17 15  09 02 11.543   +33 51 36.97  .18130 1.0520 100.4 21.1  129 104
2026 04 17 16  09 02 47.195   +33 51 52.07  .18164 1.0523 100.5 21.1  142 103
2026 04 17 17  09 03 22.721   +33 52 06.45  .18199 1.0527 100.6 21.1  155 103
2026 04 17 18  09 03 58.122   +33 52 20.11  .18233 1.0530 100.7 21.1  169 102
2026 04 17 19  09 04 33.398   +33 52 33.07  .18268 1.0534 100.7 21.1  184 102
2026 04 17 20  09 05 08.550   +33 52 45.32  .18302 1.0537 100.8 21.1  199 101
2026 04 17 21  09 05 43.577   +33 52 56.88  .18337 1.0541 100.9 21.1  215 101
2026 04 17 22  09 06 18.480   +33 53 07.75  .18372 1.0544 101.0 21.1  232 100
2026 04 17 23  09 06 53.259   +33 53 17.94  .18407 1.0548 101.0 21.1  250 100
2026 04 18 00  09 07 27.914   +33 53 27.45  .18442 1.0551 101.1 21.1  268  99
2026 04 18 01  09 08 02.447   +33 53 36.29  .18477 1.0555 101.2 21.1  288  99
2026 04 18 02  09 08 36.857   +33 53 44.48  .18512 1.0558 101.2 21.1  308  98
2026 04 18 03  09 09 11.144   +33 53 52.01  .18547 1.0562 101.3 21.1  329  98
2026 04 18 04  09 09 45.308   +33 53 58.88  .18582 1.0565 101.4 21.1  351  97
2026 04 18 05  09 10 19.351   +33 54 05.12  .18618 1.0569 101.5 21.1  374  97
2026 04 18 06  09 10 53.272   +33 54 10.72  .18653 1.0572 101.5 21.1  398  96
2026 04 18 07  09 11 27.072   +33 54 15.69  .18689 1.0576 101.6 21.1  422  96
2026 04 18 08  09 12 00.751   +33 54 20.04  .18724 1.0579 101.7 21.1  448  96
2026 04 18 09  09 12 34.310   +33 54 23.77  .18760 1.0583 101.7 21.1  474  95
2026 04 18 10  09 13 07.748   +33 54 26.89  .18795 1.0586 101.8 21.1  501  95
2026 04 18 11  09 13 41.065   +33 54 29.41  .18831 1.0590 101.9 21.1  529  95
2026 04 18 12  09 14 14.264   +33 54 31.33  .18867 1.0594 101.9 21.1  557  94
2026 04 18 13  09 14 47.343   +33 54 32.65  .18903 1.0597 102.0 21.1  587  94
2026 04 18 14  09 15 20.303   +33 54 33.39  .18939 1.0601 102.1 21.1  617  94
2026 04 18 15  09 15 53.144   +33 54 33.55  .18975 1.0604 102.1 21.1  648  94
2026 04 18 16  09 16 25.867   +33 54 33.14  .19011 1.0608 102.2 21.1  680  93
2026 04 18 17  09 16 58.472   +33 54 32.15  .19047 1.0611 102.3 21.1  713  93
2026 04 18 18  09 17 30.959   +33 54 30.61  .19083 1.0615 102.3 21.2  746  93
2026 04 18 19  09 18 03.330   +33 54 28.50  .19120 1.0618 102.4 21.2  780  93
2026 04 18 20  09 18 35.583   +33 54 25.85  .19156 1.0622 102.5 21.2  815  93
2026 04 18 21  09 19 07.720   +33 54 22.65  .19192 1.0625 102.5 21.2  851  92
2026 04 18 22  09 19 39.740   +33 54 18.91  .19229 1.0629 102.6 21.2  887  92
2026 04 18 23  09 20 11.645   +33 54 14.64  .19265 1.0632 102.7 21.2  925  92
2026 04 19 00  09 20 43.434   +33 54 09.83  .19302 1.0636 102.7 21.2  962  92
2026 04 19 01  09 21 15.108   +33 54 04.51  .19339 1.0639 102.8 21.2 1001  92
2026 04 19 02  09 21 46.668   +33 53 58.67  .19376 1.0643 102.8 21.2 1041  91
2026 04 19 03  09 22 18.113   +33 53 52.31  .19412 1.0646 102.9 21.2 1081  91
2026 04 19 04  09 22 49.444   +33 53 45.45  .19449 1.0649 103.0 21.2 1121  91
2026 04 19 05  09 23 20.661   +33 53 38.09  .19486 1.0653 103.0 21.2 1163  91
2026 04 19 06  09 23 51.766   +33 53 30.23  .19523 1.0656 103.1 21.2 1205  91
2026 04 19 07  09 24 22.757   +33 53 21.88  .19560 1.0660 103.2 21.2 1248  91
2026 04 19 08  09 24 53.636   +33 53 13.04  .19597 1.0663 103.2 21.2 1291  91
2026 04 19 09  09 25 24.402   +33 53 03.73  .19635 1.0667 103.3 21.2 1336  90
2026 04 19 10  09 25 55.057   +33 52 53.94  .19672 1.0670 103.3 21.2 1380  90
2026 04 19 11  09 26 25.601   +33 52 43.68  .19709 1.0674 103.4 21.2 1426  90